[[{"header":{"parameterUnit":"m.s-1","parameterCategory":1,"la1":30.2992,"la2":30.254,"lo1":-89.0895,"lo2":-89.0443,"dy":0.0025,"dx":0.0025,"nx":19,"ny":19,"refTime":"2026-03-21T21:00:00:Z","depth":0,"parameterNumber":2,"parameterNumberName":"U-component_of_WINDS"},"data":[0,0,0,1.6311,1.6317,1.6593,1.6594,1.6957,1.696,0,0,0,0,0,0,0,0,0,0,0,1.6228,1.623,1.6311,1.6318,1.6592,1.6594,1.6956,1.696,0,0,0,0,0,0,0,0,0,0,0,1.6226,1.6229,1.6232,1.6319,1.6592,1.6594,1.6955,1.6746,0,0,0,0,0,0,0,0,0,0,1.6477,1.6396,1.6229,1.6232,1.632,1.6592,1.6594,1.6736,1.6759,1.6834,0,1.6892,0,1.6931,1.6984,1.6985,0,0,0,1.6321,1.6376,1.6452,1.6232,1.6323,1.6591,1.6469,1.6749,1.6775,1.6865,1.6897,1.6911,1.6937,1.6986,1.6988,1.7392,1.7394,0,0,1.6306,1.6278,1.6433,1.6468,1.6417,1.6461,1.6478,1.6764,1.6801,1.6899,1.6919,1.6943,1.6989,1.6992,1.739,1.7392,0,0,0,1.626,1.6267,1.6335,1.6453,1.6502,1.6468,1.6489,1.6789,1.6813,1.6923,1.6948,1.6991,1.6995,1.7388,1.7391,1.7448,0,0,0,1.6251,1.624,1.6328,1.6314,1.6496,1.6647,1.6506,1.6793,1.6826,1.6946,1.6991,1.6999,1.7386,1.739,1.7442,1.7481,0,0,0,1.6211,1.6235,1.6273,1.6312,1.6428,1.6643,1.6684,1.6801,1.6841,1.6986,1.7,1.7385,1.7389,1.7437,1.7473,1.7582,0,0,0,1.6161,1.6321,1.6274,1.6463,1.6426,1.6672,1.6682,1.6869,1.6999,1.6993,1.7387,1.7391,1.7435,1.7468,1.7576,1.767,1.7705,0,0,1.6347,1.6342,1.6456,1.6422,1.6669,1.6633,1.6892,1.7041,1.7084,1.7289,1.73,1.7444,1.7472,1.7581,1.7906,1.7933,0,0,0,1.6506,1.6588,1.6659,1.6779,1.6893,1.6997,1.7108,1.7165,1.7339,1.718,1.7512,1.753,1.7595,1.7642,1.7665,1.7726,1.741,1.7409,1.7409,1.6731,1.6774,1.6967,1.7044,1.7161,1.7274,1.7377,1.7474,1.7484,1.7562,1.7625,1.7815,1.7869,1.7887,1.7949,1.7674,1.7675,1.7675,1.7675,1.7012,1.7137,1.7146,1.7336,1.7384,1.7548,1.7667,1.767,1.7835,1.7771,1.7831,1.7761,1.7915,1.7973,1.768,1.7679,1.7678,1.7678,1.7678,1.7167,1.7235,1.7297,1.7477,1.7613,1.7688,1.7846,1.7884,1.7922,1.798,1.8054,1.8053,1.8062,1.8012,1.8012,1.8013,1.8014,1.8014,1.8015,1.7305,1.7373,1.7498,1.7634,1.7718,1.7835,1.7954,1.8041,1.8149,1.8165,1.8166,1.8174,1.7919,1.7857,1.8025,1.8023,1.8022,1.8021,1.802,1.758,1.7524,1.7716,1.78,1.7967,1.8104,1.8149,1.8324,1.8402,1.8481,1.8476,1.828,1.828,1.8262,1.8211,1.8461,1.8461,1.8461,1.8461,1.7715,1.7716,1.7923,1.8057,1.8192,1.8253,1.848,1.8577,1.8669,1.8723,1.8692,1.8626,1.8606,1.8619,1.8593,1.8546,1.8876,1.8877,1.8877,1.7889,1.7906,1.8086,1.8169,1.8304,1.8421,1.8637,1.8798,1.8892,1.8895,1.8767,1.875,1.8645,1.8607,1.8609,1.8568,1.8483,0,0]},{"header":{"parameterUnit":"m.s-1","parameterCategory":1,"la1":30.2992,"la2":30.254,"lo1":-89.0895,"lo2":-89.0443,"dy":0.0025,"dx":0.0025,"nx":19,"ny":19,"refTime":"2026-03-21T21:00:00:Z","depth":0,"parameterNumber":3,"parameterNumberName":"V-component_of_WINDS"},"data":[0,0,0,4.29,4.2907,4.3224,4.3225,4.3615,4.3618,0,0,0,0,0,0,0,0,0,0,0,4.2795,4.2798,4.29,4.2908,4.3224,4.3225,4.3614,4.3618,0,0,0,0,0,0,0,0,0,0,0,4.2794,4.2797,4.28,4.2909,4.3223,4.3225,4.3614,4.3381,0,0,0,0,0,0,0,0,0,0,4.3076,4.2967,4.2796,4.28,4.291,4.3223,4.3225,4.337,4.3395,4.3464,0,4.3521,0,4.3576,4.3643,4.3645,0,0,0,4.2916,4.2946,4.3041,4.28,4.2913,4.3223,4.3084,4.3384,4.3413,4.3498,4.3527,4.3542,4.3582,4.3646,4.3648,4.4017,4.4018,0,0,4.2899,4.2847,4.3021,4.3059,4.3008,4.3073,4.3093,4.3402,4.3431,4.3529,4.3552,4.3589,4.3648,4.3651,4.4016,4.4017,0,0,0,4.2843,4.2834,4.2922,4.3043,4.3101,4.3082,4.3105,4.3417,4.345,4.3556,4.3593,4.365,4.3655,4.4014,4.4016,4.4032,0,0,0,4.2833,4.2801,4.2914,4.2885,4.3095,4.3263,4.3113,4.3428,4.3465,4.3591,4.365,4.3658,4.4013,4.4015,4.4029,4.4049,0,0,0,4.2779,4.2795,4.2837,4.2882,4.3016,4.3259,4.331,4.3438,4.3488,4.3645,4.3659,4.4012,4.4015,4.4026,4.4044,4.4134,0,0,0,4.2706,4.2845,4.2836,4.3006,4.3013,4.3265,4.3308,4.3499,4.3635,4.3652,4.4013,4.4016,4.4025,4.4041,4.413,4.4201,4.4225,0,0,4.2853,4.2861,4.2965,4.2967,4.3207,4.3221,4.3465,4.3639,4.3702,4.3909,4.3919,4.403,4.4044,4.4133,4.4373,4.4391,0,0,0,4.2994,4.3069,4.3144,4.3272,4.3408,4.3528,4.3671,4.3736,4.3914,4.3797,4.4087,4.4097,4.4151,4.4188,4.4204,4.4255,4.403,4.403,4.4029,4.3127,4.3201,4.338,4.3492,4.3615,4.3762,4.387,4.3984,4.402,4.4088,4.415,4.4287,4.4328,4.434,4.4393,4.4192,4.4192,4.4192,4.4192,4.3351,4.347,4.3517,4.3708,4.3786,4.3947,4.4095,4.4117,4.428,4.4245,4.4297,4.4254,4.4358,4.4408,4.4194,4.4194,4.4193,4.4193,4.4193,4.3448,4.3518,4.3595,4.379,4.3932,4.4041,4.4197,4.4261,4.4323,4.4374,4.445,4.445,4.446,4.4405,4.4405,4.4406,4.4406,4.4407,4.4407,4.3519,4.3606,4.3729,4.3887,4.398,4.4109,4.426,4.4354,4.4474,4.4509,4.451,4.4543,4.4353,4.4306,4.4415,4.4413,4.4412,4.4412,4.4411,4.3723,4.3688,4.3877,4.397,4.4164,4.4302,4.4383,4.4568,4.4655,4.473,4.4753,4.4601,4.4614,4.4602,4.4564,4.4734,4.4734,4.4734,4.4734,4.3807,4.382,4.403,4.4175,4.4324,4.4416,4.4632,4.4752,4.487,4.4929,4.4914,4.4868,4.4852,4.4875,4.4857,4.4823,4.5054,4.5055,4.5055,4.3938,4.3969,4.4139,4.4253,4.441,4.4544,4.475,4.4917,4.5043,4.5069,4.4978,4.4965,4.489,4.4862,4.4886,4.4857,4.4794,0,0]}]]